Location: Charlotte
(35.2270°N, 80.8430°W)
Time: 05:58:54
(UTC-04:00)

Daily predictions for brighter satellites

Satellite Brightness Start Highest point End
(mag) Time Altitude Azimuth Time Altitude Azimuth Time Altitude Azimuth
ATLAS CENTAUR R/B 4.5 00:55:09 68° NNW 00:55:09 68° NNW 01:17:24 10° NE
ATLAS 3B R/B 4.3 02:56:06 29° NNW 02:56:06 29° NNW 03:01:21 10° NNE
CZ-2D R/B 3.9 03:20:49 10° NE 03:23:57 25° ENE 03:23:57 25° ENE
CZ-4C R/B 4.0 03:33:52 24° NNW 03:33:52 24° NNW 03:37:04 10° NNE
Cosmos 2369 Rocket 3.3 03:36:15 10° N 03:41:29 41° ENE 03:41:29 41° ENE
ARIANE 5 R/B 3.8 03:37:02 10° NNE 03:40:24 38° NE 03:40:24 38° NE
USA 234 3.3 03:42:03 10° NE 03:47:57 73° NNE 03:47:57 73° NNE
SL-16 R/B 2.9 03:52:07 59° E 03:52:34 60° ENE 03:58:38 10° N
Resurs 1-4 Rocket 2.8 03:54:32 10° NNE 03:58:42 52° NE 03:58:42 52° NE
NOSS 3-2 (A) 4.4 04:04:36 38° NW 04:04:36 38° NW 04:09:58 10° NNE
Cosmos 1943 Rocket 4.1 03:59:42 10° N 04:04:28 27° ENE 04:09:10 10° ESE
Cosmos 1709 Rocket 4.0 04:09:47 10° N 04:16:09 76° E 04:17:25 58° SSE
NOSS 3-3 (A) 4.3 04:10:02 10° NW 04:17:37 78° WSW 04:25:36 10° SSE
NOSS 3-3 (C) 4.3 04:10:07 10° NW 04:17:43 79° WSW 04:25:43 10° SSE
CENTAUR R/B 2.7 04:19:17 52° SE 04:20:07 57° ESE 04:26:34 10° NE
NOSS 3-2 (C) 4.3 04:20:58 37° NW 04:20:58 37° NW 04:26:55 10° NNE
SL-27 R/B 4.5 04:26:50 28° ENE 04:26:50 28° ENE 04:29:18 10° NE
Cosmos 1733 Rocket 3.5 04:27:57 10° N 04:32:11 60° ENE 04:32:11 60° ENE
ATLAS 5 CENTAUR R/B 2.1 04:33:28 60° NNW 04:33:28 60° NNW 04:38:00 10° NNE
ARGOS Delta rocket 4.0 04:30:52 10° NNE 04:35:13 59° E 04:35:21 59° ESE
OAO 3 Copernicus 4.3 04:38:26 72° SE 04:38:26 72° SE 04:43:03 10° ESE
UNKNOWN OBJECT B 4.3 04:42:20 10° N 04:44:15 28° NNW 04:44:15 28° NNW
Cosmos 839 Rocket 4.3 04:40:59 10° NW 04:48:23 52° WSW 04:49:55 44° SSW
Cosmos 1869 3.9 04:50:13 47° NNW 04:50:13 47° NNW 04:53:12 10° N
Cosmos 1933 3.8 04:55:33 42° SSE 04:56:41 61° E 05:00:45 10° NNE
CZ-4B R/B 3.3 04:54:49 10° NNE 04:58:26 52° E 04:59:29 38° SSE
BREEZE-M DEB (TANK) 3.7 04:59:15 42° E 04:59:15 42° E 05:01:54 10° ENE
Cosmos 1908 Rocket 4.2 04:56:44 10° N 05:01:02 54° E 05:05:16 10° SSE
Okean O Rocket 1.5 04:58:33 10° N 05:03:03 83° WNW 05:04:08 51° SSW
CZ-2D R/B 3.9 04:59:04 10° N 05:03:05 47° WNW 05:03:05 47° WNW
CZ-2D R/B 3.1 05:00:51 10° N 05:05:16 29° WNW 05:05:16 29° WNW
Cosmos 1302 Rocket 4.2 05:02:33 10° NNW 05:07:31 45° WSW 05:07:50 45° WSW
Okean-O 4.3 05:04:07 10° NE 05:08:07 32° E 05:12:04 10° SSE
Atlas Centaur 2 3.0 05:07:31 22° S 05:08:18 23° SSE 05:12:20 10° ESE
COSMOS 2406 3.1 05:08:57 33° SSW 05:11:43 84° WNW 05:17:31 10° NNE
Cosmos 2285 Rocket 4.4 05:06:10 10° NNW 05:12:34 66° ENE 05:18:52 10° SSE
Cosmos 1703 Rocket 3.6 05:12:39 23° S 05:15:25 80° E 05:19:55 10° N
Cosmos 389 Rocket 3.6 05:17:29 30° NW 05:17:29 30° NW 05:19:53 10° N
Sich 1 Rocket 3.4 05:14:08 10° NNW 05:18:31 72° W 05:22:01 16° S
ARIANE 5 R/B 4.3 05:17:44 10° NNW 05:20:44 16° WNW 05:20:44 16° WNW
Cosmos 1455 4.3 05:26:13 15° NW 05:26:13 15° NW 05:27:34 10° NNW
Cosmos 2369 Rocket 3.7 05:20:56 10° NW 05:23:07 19° WNW 05:23:07 19° WNW
SeaSat 1 2.4 05:20:52 10° SSE 05:25:43 61° WSW 05:30:37 10° NNW
CZ-4B DEB 4.1 05:22:36 10° N 05:28:03 71° WNW 05:32:22 16° SSW
CZ-4B R/B 3.1 05:24:19 10° N 05:29:32 62° WNW 05:33:13 19° SSW
ASTRO F (AKARI) 4.5 05:28:27 10° SSE 05:32:07 88° E 05:35:37 10° NNW
Geosat 4.0 05:29:53 10° NNE 05:34:56 86° ESE 05:39:22 13° SSW
SL-16 R/B 3.9 05:37:14 17° W 05:37:14 17° W 05:40:32 10° NW
COSMOS 2487 2.8 05:35:36 14° S 05:38:38 67° ESE 05:42:13 10° NNE
Resurs 1-4 Rocket 3.9 05:36:27 10° NW 05:39:01 14° WNW 05:39:46 13° WNW
PSLV R/B 3.6 05:35:11 10° NNE 05:39:35 86° E 05:43:58 10° SSW
CZ-2C R/B 4.1 05:37:55 10° SSW 05:42:03 38° W 05:46:11 10° NNW
GPS 2-05 Rocket1 3.4 05:43:30 26° SW 05:44:59 43° SSE 05:48:08 10° E
Cosmos 1943 Rocket 2.6 05:43:05 10° NW 05:48:14 37° WSW 05:53:20 10° S
Cosmos 1190 Rocket 4.0 05:45:56 12° SSW 05:50:37 62° WNW 05:55:46 10° N
Thor Agena Rocket 3.6 05:46:50 10° S 05:51:51 58° WSW 05:56:59 10° NNW
Okean 1-7 3.1 05:49:44 10° SSW 05:53:57 57° W 05:58:13 10° N
ADEOS II 2.1 05:48:45 10° NNE 05:54:01 85° WNW 05:59:16 10° SSW
Nadezhda 1 Rocket 4.4 05:49:51 10° SSW 05:55:45 44° W 06:01:47 10° N
Okean 2 Rocket 3.0 05:51:35 10° N 05:56:05 74° W 06:00:34 10° S
Cosmos 1408 3.5 05:53:34 10° NNW 05:56:51 29° W 06:00:08 10° SSW
Aureole 3 Rocket 4.3 05:54:24 10° SSW 06:01:38 48° W 06:06:53 10° N
Cosmos 1992 Rocket 4.2 05:57:55 10° NNW 06:02:55 47° WSW 06:07:54 10° S
Meteor 1-31 Rocket 3.1 05:59:42 10° NNE 06:03:31 68° ESE 06:07:17 10° S
Cosmos 1825 3.3 06:01:31 10° NW 06:04:34 23° W 06:07:37 10° SW
Centaur D-1A AC-31 2.4 05:58:26 12° W 06:05:58 38° SSW 06:09:23 10° SE
Cosmos 2181 Rocket 4.1 06:01:02 10° S 06:07:28 85° W 06:13:55 10° N
ADEOS Rocket 3.7 06:00:03 10° N 06:07:42 65° WNW 06:15:16 10° SSW
Cosmos 1954 Rocket 4.0 06:04:55 10° SSW 06:10:04 87° ESE 06:15:18 10° NNE
CENTAUR R/B 3.8 06:06:29 11° W 06:11:12 25° NW 06:16:46 10° N
Cosmos 1674 Rocket 4.4 06:11:37 10° S 06:15:58 56° E 06:20:18 10° NNE
COBE Rocket 4.4 06:12:28 10° NNE 06:17:39 71° E 06:22:40 10° S
Cosmos 1782 Rocket 4.3 06:14:20 10° NNW 06:18:09 30° W 06:21:55 10° SSW
Cosmos 1656 Rocket 3.9 06:14:27 10° NW 06:19:33 43° WSW 06:24:36 10° S
AVUM R/B 4.1 06:17:17 10° SW 06:20:10 32° WNW 06:23:11 10° N
NAVSTAR 52 R/B(PAM-D 4.4 06:19:36 10° NW 06:21:08 26° N 06:22:36 10° ENE
BREEZE-M DEB (TANK) 4.4 05:59:44 10° WNW 06:21:59 77° SW 06:26:57 10° SE
PSLV R/B 4.1 06:21:37 10° WNW 06:24:58 50° NNE 06:28:16 10° E
Cosmos 2154 Rocket 4.3 06:20:20 10° NNW 06:26:18 45° W 06:32:16 10° SSW
Centaur D-1AR AC-36 3.9 06:23:13 10° SW 06:27:29 16° S 06:30:02 10° SE
Cosmos 676 Rocket 4.3 06:23:22 10° SW 06:28:20 47° WNW 06:33:20 10° N
Timation 2 Rocket 4.3 06:23:01 10° SSW 06:29:15 70° ESE 06:35:19 10° NNE
Cosmos 1295 Rocket 4.5 06:23:17 10° N 06:29:24 79° W 06:35:34 10° S
